Find Starlink 6108

NORAD ID: 57155 Int'l Des: 2023-090 Owner: SPXS Country: US Constellation: starlink operational
LEOCIRCULAR

現在のビュー

3D地球を読み込み中...

About Starlink 6108

Starlink 6108 (NORAD 57155) is a starlink constellation satellite (v1.5) launched Jun 23, 2023 by SPXS of US. It operates in LEO, CIRCULAR orbit with a mass of 305.00 kg.

Starlink 6108について

説明を読み込み中...

次回通過

Passes for default location (London). Set your location on the main map for personalized predictions.

高度履歴

Loading altitude history...

軌道要素

1 57155U 23090BG 26166.01927309 -.00000705 00000-0 -16096-4 0 9999
2 57155 43.0087 74.1008 0001636 269.0035 91.0629 15.27577354165429
Epoch: Jun 15, 2026 • Age: 19 hours

現在のステータス

高度 485.2 km
速度 7.63 km/s
衛星直下点 33.61°N, 2.67°E
打ち上げ日 Jun 23, 2023
運用期間 2.9 years
タイプ internet

技術仕様

分類 Payload
質量 305.00 kg
乾燥質量 290.00 kg
総質量 305.00 kg
長さ 0.20 m
直径 2.80 m
スパン 9.00 m
形状 Box + pan
製造者 SPXS
バスタイプ Starlink
フェーズステータス In Orbit
所有者/国 SPXS/US

Most Searched